Saint Simons Island, GA

4:33 PM EST on December 12, 2019 (GMT -0500)
McKinnon

Weather History for KSSI - October, 2019

Change the Weather History Date:

Wednesday, October 30, 2019

  Actual Average Record
Temperature  
Mean Temperature 80 °F 66 °F  
Max Temperature 84 °F 75 °F 84 °F (2019)
Min Temperature 75 °F 58 °F 37 °F (1952)
Degree Days  
Heating Degree Days 0 2  
Month to date heating degree days 0 27  
Since 1 July heating degree days 0 27  
Cooling Degree Days 15 3  
Month to date cooling degree days 346 186  
Year to date cooling degree days 3333 2557  
Growing Degree Days 28 (Base 50)    
Moisture  
Dew Point 74 °F    
Average Humidity 84    
Maximum Humidity 94    
Minimum Humidity 74    
Precipitation  
Precipitation T in 0.09 in 4.79 in (1985)
Month to date precipitation 5.33 4.37  
Year to date precipitation 32.43 40.24  
Snow  
Snow 0.00 in - 0.00 in ()
Month to date snowfall 0.0  
Since 1 July snowfall 0.0  
Since 1 September snowfall 0.0  
Snow Depth 0.00 in    
Sea Level Pressure  
Sea Level Pressure 30.09 in    
Wind  
Wind Speed 7 mph (ENE)    
Max Wind Speed 14 mph    
Max Gust Speed 20 mph    
Visibility 10 miles    
Events Rain    
T = Trace of Precipitation, MM = Missing Value Source: NWS Daily Summary

Daily Weather History Graph

Daily Weather History Graph

Search for Another Location

Airport or City:

Astronomy

Oct. 30, 2019 Rise Set
Actual Time 7:39 AM EDT 6:38 PM EDT
Civil Twilight 7:14 AM EDT 7:03 PM EDT
Nautical Twilight 6:45 AM EDT 7:32 PM EDT
Astronomical Twilight 6:17 AM EDT 8:00 PM EDT
Moon 10:13 AM EDT (10/30) 8:54 PM EDT (10/30)
Length of Visible Light 11h 49m
Length of Day
10h 59m
Waxing Crescent, 8% of the Moon is Illuminated
Oct 30
Waxing Crescent
Nov 4
First Quarter
Nov 12
Full
Nov 19
Last Quarter
Nov 26
New

Hourly Weather History & Observations

Time (EDT) Temp. Heat Index Dew Point Humidity Pressure Visibility Wind Dir Wind Speed Gust Speed Precip Events Conditions
12:06 AM 75.9 °F - 72.0 °F 87% 30.13 in 10.0 mi NE 15.0 mph 23.0 mph N/A   Overcast
12:53 AM 75.9 °F - 72.0 °F 87% 30.13 in 10.0 mi ENE 10.4 mph - 0.00 in   Overcast
1:53 AM 75.9 °F - 72.0 °F 87% 30.12 in 10.0 mi ENE 10.4 mph - 0.00 in   Overcast
2:31 AM 75.9 °F - 72.0 °F 87% 30.10 in 10.0 mi East 9.2 mph - N/A   Mostly Cloudy
2:53 AM 75.9 °F - 73.0 °F 91% 30.10 in 10.0 mi East 9.2 mph - 0.00 in   Overcast
3:18 AM 75.9 °F - 72.0 °F 87% 30.09 in 10.0 mi East 6.9 mph - 0.00 in Rain Light Rain
3:32 AM 75.9 °F - 72.0 °F 87% 30.08 in 10.0 mi East 5.8 mph - 0.00 in Rain Light Rain
3:53 AM 75.9 °F - 73.0 °F 91% 30.07 in 10.0 mi East 6.9 mph - 0.00 in Rain Light Rain
4:53 AM 75.9 °F - 72.0 °F 87% 30.07 in 10.0 mi ENE 3.5 mph - 0.00 in   Clear
5:53 AM 75.0 °F - 72.0 °F 90% 30.08 in 10.0 mi ENE 4.6 mph - N/A   Clear
6:53 AM 75.9 °F - 73.0 °F 91% 30.08 in 10.0 mi ENE 5.8 mph - 0.00 in Rain Light Rain
7:53 AM 75.9 °F - 73.0 °F 91% 30.11 in 10.0 mi ENE 3.5 mph - 0.00 in   Clear
8:53 AM 79.0 °F - 75.0 °F 88% 30.12 in 10.0 mi NNE 4.6 mph - 0.00 in Rain Light Rain
9:16 AM 80.1 °F 85.1 °F 75.0 °F 85% 30.12 in 10.0 mi NNE 6.9 mph - 0.00 in Rain Light Rain
9:53 AM 80.1 °F 84.5 °F 73.9 °F 81% 30.13 in 10.0 mi NE 8.1 mph - 0.00 in Rain Light Rain
10:25 AM 80.1 °F 84.5 °F 73.9 °F 81% 30.12 in 10.0 mi ENE 8.1 mph - 0.00 in   Scattered Clouds
10:53 AM 80.1 °F 84.5 °F 73.9 °F 81% 30.12 in 10.0 mi ENE 10.4 mph - 0.00 in   Partly Cloudy
11:07 AM 80.1 °F 84.5 °F 73.9 °F 81% 30.12 in 10.0 mi NE 10.4 mph - N/A   Scattered Clouds
11:18 AM 79.0 °F - 73.9 °F 84% 30.12 in 10.0 mi ENE 9.2 mph - 0.00 in Rain Light Rain
11:53 AM 80.1 °F 84.5 °F 73.9 °F 81% 30.12 in 10.0 mi NE 10.4 mph - 0.00 in   Overcast
12:53 PM 80.1 °F 84.5 °F 73.9 °F 81% 30.09 in 10.0 mi ENE 9.2 mph - 0.00 in   Scattered Clouds
1:53 PM 81.0 °F 86.2 °F 73.9 °F 79% 30.06 in 10.0 mi East 6.9 mph - 0.00 in   Clear
2:53 PM 82.0 °F 88.6 °F 75.0 °F 79% 30.05 in 10.0 mi East 5.8 mph - N/A   Clear
3:53 PM 82.9 °F 89.4 °F 73.9 °F 74% 30.05 in 10.0 mi East 6.9 mph - N/A   Clear
4:53 PM 82.0 °F 87.9 °F 73.9 °F 76% 30.05 in 10.0 mi ENE 5.8 mph - N/A   Clear
5:53 PM 80.1 °F 85.1 °F 75.0 °F 85% 30.03 in 10.0 mi East 6.9 mph - N/A   Clear
6:53 PM 79.0 °F - 75.0 °F 88% 30.04 in 10.0 mi East 5.8 mph - N/A   Clear
7:53 PM 78.1 °F - 75.0 °F 90% 30.04 in 10.0 mi SE 5.8 mph - N/A   Clear
8:53 PM 78.1 °F - 75.0 °F 90% 30.04 in 10.0 mi SE 4.6 mph - N/A   Clear
9:53 PM 78.1 °F - 75.0 °F 90% 30.05 in 10.0 mi ESE 5.8 mph - N/A   Clear
10:53 PM 78.1 °F - 75.0 °F 90% 30.05 in 10.0 mi SE 6.9 mph - N/A   Clear
11:53 PM 78.1 °F - 75.0 °F 90% 30.05 in 10.0 mi SE 6.9 mph - 0.00 in   Clear